Flag for Norway Weather past 2 weeks in Randaberg, Norway

Now
59 °F

Rain. Fog.


Feels Like: 60 °F
Forecast: 58 / 66 °F
Wind: 3 mph from West

Location: Stavanger / Sola

Current Time: Jul 31, 2014 at 3:20:59 AM

Latest Report: Jul 31, 2014 at 2:00 AM


Visibility: 2 mi

Pressure: 29.71 "Hg

Humidity: 90%

Dew point: 56 °F

Location of RandabergLocation

Historic Weather in Randaberg — Graph

°F

Randaberg temperature yesterday

Maximum temperature yesterday: 66 °F (at 3:00 PM)
Minimum temperature yesterday: 61 °F (at 3:00 AM)
Average temperature yesterday: 64 °F

Past Weeks' High & Low Weather Summary

 TemperatureHumidityPressure
High84 °F (Jul 20, 3:00 PM)96% (Jul 28, 6:00 AM)30.32 "Hg (Jul 28, 6:00 AM)
Low56 °F (Jul 19, 5:00 AM)37% (Jul 20, 2:00 PM)29.71 "Hg (Jul 31, 2:00 AM)
Average69 °F69%30.05 "Hg
* Reported Jul 16 2:00 AM — Jul 31 2:00 AM, Randaberg, Weather by CustomWeather, © 2014

Note: Actual official high and low records may vary slightly from our data, if they occured in-between our weather recording intervals... More about our weather records

Advertising

Randaberg weather history for previous 24 hours

 ConditionsComfort  
Time TempWeatherWind HumidityBarometerVisibility
2:00 AM
Jul 31
59 °FRain. Fog.3 mph90%29.71 "Hg2 mi
1:00 AM62 °FOvercast.3 mph76%29.72 "Hg22 mi
12:00 AM63 °FOvercast.5 mph71%29.73 "Hg22 mi
11:00 PM
Jul 30
62 °FPassing clouds.6 mph71%29.73 "Hg22 mi
10:00 PM62 °FOvercast.6 mph77%29.73 "Hg22 mi
9:00 PM64 °FPartly sunny.6 mph66%29.73 "Hg25 mi
8:00 PM65 °FPartly sunny.6 mph65%29.73 "Hg28 mi
7:00 PM65 °FPartly sunny.5 mph67%29.73 "Hg22 mi
6:00 PM65 °FSunny.6 mph66%29.74 "Hg25 mi
5:00 PM64 °FRain showers. Partly sunny.5 mph73%29.74 "Hg9 mi
4:00 PM66 °FScattered clouds.6 mph65%29.75 "Hg25 mi
3:00 PM66 °FPartly sunny.7 mph60%29.75 "Hg25 mi
2:00 PM65 °FPartly sunny.8 mph69%29.75 "Hg22 mi
1:00 PM66 °FScattered clouds.6 mph65%29.75 "Hg22 mi
12:00 PM66 °FPartly sunny.8 mph68%29.75 "Hg19 mi
11:00 AM64 °FScattered clouds.3 mph75%29.75 "Hg19 mi
10:00 AM64 °FPassing clouds.5 mph76%29.75 "Hg19 mi
9:00 AM64 °FPartly sunny.3 mph69%29.74 "Hg25 mi
8:00 AM64 °FOvercast.2 mph69%29.73 "Hg28 mi
7:00 AM62 °FScattered clouds.2 mph73%29.74 "Hg31 mi
6:00 AM61 °FPassing clouds.2 mph75%29.74 "Hg31 mi
5:00 AM62 °FPassing clouds.5 mph79%29.74 "Hg31 mi
4:00 AM62 °FOvercast.6 mph84%29.74 "Hg31 mi
3:00 AM61 °FLots of rain. Overcast.2 mph94%29.75 "Hg9 mi
Weather by CustomWeather, © 2014

See weather overviewHow to use our weather pages